Regional Weather Roundup
Issued by NWS

Home | Current Version | Previous Version | Text Only | Print | Product List | Glossary On
Versions: 1 2 3 4 5 6 7 8 9 10 11 12 13 14 15 16 17 18 19 20 21 22 23 24 25 26 27 28 29 30 31 32 33 34 35 36 37 38 39 40 41 42 43 44 45 46 47 48 49 50
000
ASPQ40 PGUM 181612
RWRPQ
WEATHER ROUNDUP FOR THE MARIANAS AND MICRONESIA
NATIONAL WEATHER SERVICE TIYAN GU
200 AM CHST THU OCT 19 2017

GUZ001>004-181700-
MARIANA ISLANDS-

CITY           SKY/WX    TMP DP  RH WIND       PRES   REMARKS
GUAM AIRPORT   CLEAR     79  77  94 W12       29.76F
ANDERSEN AFB   PTCLDY    77  75  94 W15       29.76F
ROTA AIRPORT   NOT AVBL
TINIAN AP      NOT AVBL
SAIPAN AP      LGT RAIN  79  79 100 W20G30    29.74F FOG

$$

PMZ161-181700-
REPUBLIC OF PALAU-

CITY           SKY/WX    TMP DP  RH WIND       PRES   REMARKS
KOROR AP       MOCLDY    84  77  79 S15G29    29.69S HX  94
KOROR WSO      MOCLDY    84  73  70 S16       29.70F HX  91

$$

PMZ171>174-181700-
FEDERATED STATES OF MICRONESIA-

CITY           SKY/WX    TMP DP  RH WIND       PRES   REMARKS
YAP AIRPORT    CLOUDY    84  79  84 S12       29.71F HX  96
CHUUK AP       CLOUDY    81  79  94 N8        29.76F
POHNPEI AP     NOT AVBL
POHNPEI WSO    CLOUDY    75  75 100 SE5       29.80F
KOSRAE AP      NOT AVBL

$$

PMZ181-181700-
REPUBLIC OF THE MARSHALL ISLANDS-

CITY           SKY/WX    TMP DP  RH WIND       PRES   REMARKS
KWAJALEIN AP   PTCLDY    81  77  89 NE5       29.79S
MAJURO AP      NOT AVBL
MAJURO WSO     MOCLDY    82  77  83 NW9       29.76S HX  91

$$




USA.gov is the U.S. government's official web portal to all federal, state and local government web resources and services.